Wind_Speed
22 21 20 21 20 22 21 20 18 18 19 19 23 22 20 20 20 21 22 22 21 20 19 15 17 21 23 19 17 16 16 16
19 19 20 22 22 22 22 19 19 18 17 13 16 20 21 21 21 18 18 21 20 18 18 18 16 16 17 16 17 20 15 14
21 21 21 21 19 19 19 17 15 11 12 16 14 12 12 13 14 16 16 16 16 16 16 15 15 16 15 15 18 21 12 16
21 18 16 16 15 15 15 14 13 12 12 11 13 9 11 12 14 16 15 16 17 18 20 21 20 21 19 18 19 19 17 23
15 14 13 13 15 15 15 16 17 15 14 13 12 12 15 17 18 18 18 19 19 17 17 19 20 18 21 18 18 20 18 21
12 13 15 16 18 17 16 19 20 20 20 19 17 17 18 17 17 17 16 18 17 16 17 18 14 13 16 16 17 18 18 17
15 14 17 19 19 20 21 22 21 20 19 17 16 16 15 14 15 16 14 14 18 16 17 18 14 13 16 10 11 14 15 16
15 16 18 19 23 25 22 21 21 20 19 16 16 15 13 11 14 18 15 13 15 17 16 18 15 12 16 20 10 13 15 17
22 25 25 25 25 23 21 21 19 19 17 15 17 13 13 13 15 17 17 15 12 15 15 19 16 14 19 16 15 10 18 18
25 24 22 20 20 21 21 19 17 16 15 14 15 14 13 14 14 14 13 15 15 16 20 21 20 18 14 12 15 16 17 23
23 22 22 23 24 22 22 20 19 17 15 13 12 15 13 13 14 13 11 13 17 15 18 23 22 20 17 16 17 21 28 25
23 23 21 21 21 20 20 18 15 12 11 10 10 11 10 10 10 14 11 13 17 16 15 19 21 19 14 26 27 27 31 30
23 22 21 21 21 21 20 19 14 12 9 8 8 8 8 6 8 11 10 14 15 16 17 17 24 21 12 12 11 25 26 26
22 21 21 19 17 19 20 19 13 11 9 7 7 7 8 8 10 10 9 12 15 16 17 17 19 23 14 6 4 4 14 20
21 20 17 16 19 22 20 16 15 14 11 8 7 9 9 9 10 9 10 11 13 14 15 16 16 16 19 9 4 2 11 8
20 19 16 23 17 17 19 20 20 19 13 7 7 8 9 8 8 8 9 10 12 13 12 13 14 15 9 14 13 10 2 4
23 20 20 17 17 12 18 19 20 20 10 9 8 8 7 7 6 7 8 9 9 11 11 12 13 12 12 11 10 10 12 4
25 24 20 19 18 16 17 19 21 16 14 15 12 9 7 4 5 5 6 7 9 8 8 8 9 9 9 10 11 6 9 6
26 24 24 21 18 16 17 18 18 18 14 17 17 12 5 3 3 3 4 5 6 6 6 7 8 8 8 7 7 10 10 10
28 25 25 23 20 18 16 17 15 15 13 12 10 7 3 2 3 2 2 3 5 4 5 3 6 6 6 5 8 8 9 11
Wind_Direction
104 106 105 106 107 103 101 96 90 85 78 65 59 53 58 59 60 60 58 53 49 42 37 34 42 39 37 35 37 35 39 39
108 112 109 104 105 103 105 100 102 90 76 70 61 61 57 58 57 52 58 56 47 39 39 42 37 34 31 37 36 40 43 34
113 113 114 106 103 97 93 100 100 87 85 92 78 74 57 54 48 49 53 50 43 29 28 27 36 33 22 24 38 37 48 51
117 117 120 116 106 99 94 94 89 78 88 74 80 89 73 64 59 53 51 48 41 37 34 31 31 31 28 35 42 44 54 55
119 125 131 116 109 107 95 93 95 90 85 76 87 84 82 66 55 50 44 41 36 34 29 26 28 29 34 46 46 48 51 54
131 133 124 113 113 106 99 96 95 93 89 84 80 74 69 60 53 45 43 41 36 30 35 33 34 36 36 42 56 51 49 59
131 124 113 115 110 104 98 91 91 93 89 86 78 71 66 64 57 46 40 43 44 32 37 35 31 35 40 31 54 56 52 59
134 122 113 112 105 100 97 98 98 93 88 84 79 78 69 60 57 49 40 35 48 43 40 39 27 24 38 44 70 61 72 62
118 113 112 108 106 108 106 98 96 93 88 87 76 69 63 61 63 57 44 36 47 49 44 39 26 31 40 32 39 48 82 71
122 116 116 116 114 117 113 108 100 89 84 84 80 70 54 53 56 57 31 33 45 48 39 40 23 13 12 18 27 97 76 91
132 131 129 124 124 120 116 110 101 92 85 77 80 70 65 54 59 58 26 30 39 41 45 39 21 11 11 24 65 76 79 80
139 135 135 134 128 125 115 112 104 102 98 85 78 82 76 69 70 61 37 38 41 44 45 47 28 7 29 82 83 80 73 59
140 138 140 136 135 132 131 124 123 116 108 98 93 75 68 74 79 74 49 52 47 44 46 46 35 18 33 64 76 73 58 55
149 145 147 148 147 148 146 145 144 134 130 107 90 75 65 80 84 71 60 58 48 44 44 48 48 41 25 11 4 339 24 39
158 154 168 164 150 145 146 149 144 142 143 123 89 74 80 78 84 77 61 59 53 49 48 51 47 51 48 42 26 327 341 19
163 163 170 163 172 172 171 169 165 169 159 126 107 78 77 77 76 78 61 61 57 54 47 52 55 48 46 47 55 45 31 334
177 175 170 175 173 171 182 191 170 162 153 154 140 115 77 89 75 63 65 56 62 59 49 45 52 51 48 35 39 35 31 29
180 180 179 177 189 185 169 159 160 162 164 166 156 135 117 110 98 64 54 58 58 68 60 46 50 47 38 39 38 31 22 25
180 182 177 184 183 176 163 156 165 158 154 148 153 147 136 110 104 74 57 46 58 75 69 56 43 43 30 29 21 23 20 17
183 187 178 184 183 181 178 175 168 167 166 173 167 183 203 178 138 99 58 38 46 92 68 46 20 34 25 31 4 5 1 359
Height
859 860 862 860 862 859 862 865 867 869 868 870 871 871 873 872 872 871 870 870 870 869 867 865 864 863 862 861 860 861 858 859
860 862 861 863 864 862 863 866 868 869 869 870 871 874 876 875 875 874 872 871 870 869 867 866 864 863 863 861 861 860 860 859
864 864 864 864 864 865 866 869 870 871 872 873 870 874 877 878 877 875 873 872 870 870 869 869 865 864 864 863 861 860 861 861
865 866 866 867 867 867 868 871 871 872 874 873 872 877 879 880 878 877 876 875 873 872 871 870 867 866 865 864 864 863 863 862
867 866 867 867 868 869 871 872 872 874 875 875 878 880 881 880 880 879 878 876 874 874 872 871 870 869 868 867 866 864 864 864
869 868 867 869 871 872 873 873 873 877 877 879 882 883 883 882 882 881 878 877 876 875 873 872 872 871 870 868 867 866 866 865
871 872 870 871 872 872 875 876 878 882 882 883 884 884 884 884 883 881 880 879 877 876 875 874 872 871 870 869 868 867 867 866
871 872 872 873 873 876 880 880 883 886 886 886 886 886 886 886 885 884 882 881 879 878 877 875 873 873 871 871 871 870 868 868
872 873 874 877 879 880 882 884 887 888 889 889 889 889 888 887 886 886 884 882 881 878 877 876 875 873 871 871 872 872 871 870
874 876 877 879 883 884 886 888 888 889 890 892 891 891 890 889 888 886 885 883 881 880 879 877 876 874 873 873 873 873 871 871
874 877 880 881 883 885 887 889 891 892 891 892 892 892 891 890 890 888 887 885 883 882 880 879 877 876 874 873 873 874 873 874
876 876 880 883 885 886 888 890 892 893 893 894 893 893 893 892 891 890 889 887 885 884 883 882 880 878 877 875 875 875 874 876
877 878 881 883 885 887 889 890 892 894 894 895 895 894 894 893 892 891 891 889 888 887 886 884 882 878 875 878 878 876 875 878
875 878 880 881 884 885 888 890 892 893 894 894 895 895 895 894 894 893 893 891 890 889 887 886 885 883 881 880 881 878 879 879
875 876 880 880 882 883 888 891 892 893 894 894 894 894 895 895 895 894 894 892 891 890 888 887 887 887 886 885 886 888 882 880
872 873 876 879 881 883 882 885 889 893 893 893 894 895 895 895 895 895 894 893 892 891 890 888 888 888 889 889 888 888 887 885
870 874 874 877 880 881 882 883 888 890 892 892 894 893 893 894 894 894 894 893 893 892 891 890 889 890 890 890 889 888 888 887
869 871 872 876 877 879 880 881 884 888 890 891 893 894 894 894 895 894 894 893 893 892 891 890 890 891 891 891 891 890 889 888
865 869 869 873 875 877 878 879 882 885 888 890 892 892 893 894 894 894 893 893 893 892 891 890 890 890 890 890 890 890 889 888
862 865 866 870 872 874 877 878 879 882 885 887 889 890 891 892 892 893 892 892 891 891 890 889 889 889 889 889 889 888 888 887